TimeCDT,TemperatureF,Dew PointF,Humidity,Sea Level PressureIn,VisibilityMPH,Wind Direction,Wind SpeedMPH,Gust SpeedMPH,PrecipitationIn,Events,Conditions,WindDirDegrees,DateUTC
12:10 AM,35.6,35.6,100,29.69,3.0,NE,6.9,-,N/A,,Overcast,50,2013-03-18 05:10:00
12:50 AM,37.4,37.4,100,29.75,3.0,NNE,11.5,-,N/A,,Overcast,30,2013-03-18 05:50:00
1:10 AM,39.2,39.2,100,29.77,3.0,NNE,10.4,-,N/A,,Overcast,20,2013-03-18 06:10:00
1:30 AM,39.2,39.2,100,29.75,4.0,NE,6.9,-,N/A,,Overcast,40,2013-03-18 06:30:00
1:50 AM,39.2,39.2,100,29.73,4.0,ENE,9.2,-,N/A,,Overcast,60,2013-03-18 06:50:00
2:10 AM,39.2,39.2,100,29.74,5.0,ENE,9.2,-,N/A,,Overcast,70,2013-03-18 07:10:00
2:30 AM,39.2,39.2,100,29.78,6.0,NE,9.2,-,N/A,,Overcast,50,2013-03-18 07:30:00
2:50 AM,39.2,39.2,100,29.78,7.0,NE,11.5,-,N/A,,Overcast,40,2013-03-18 07:50:00
3:10 AM,39.2,39.2,100,29.80,7.0,NNE,12.7,20.7,N/A,,Overcast,30,2013-03-18 08:10:00
3:30 AM,39.2,39.2,100,29.80,5.0,NE,8.1,-,N/A,Rain,Light Rain,40,2013-03-18 08:30:00
3:50 AM,39.2,39.2,100,29.82,7.0,NW,6.9,-,N/A,,Overcast,310,2013-03-18 08:50:00
4:10 AM,39.2,39.2,100,29.82,6.0,NNW,4.6,-,N/A,Rain,Light Rain,330,2013-03-18 09:10:00
4:30 AM,39.2,39.2,100,29.82,5.0,North,9.2,-,N/A,Rain,Light Rain,350,2013-03-18 09:30:00
4:50 AM,39.2,39.2,100,29.82,5.0,NNW,5.8,-,N/A,,Overcast,330,2013-03-18 09:50:00
5:10 AM,39.2,39.2,100,29.84,7.0,NW,9.2,-,N/A,,Overcast,320,2013-03-18 10:10:00
5:30 AM,39.2,39.2,100,29.86,7.0,NW,9.2,-,N/A,,Overcast,310,2013-03-18 10:30:00
5:50 AM,37.4,37.4,100,29.86,6.0,NW,6.9,-,N/A,,Mostly Cloudy,320,2013-03-18 10:50:00
6:10 AM,35.6,35.6,100,29.88,5.0,West,3.5,-,N/A,,Mostly Cloudy,280,2013-03-18 11:10:00
6:30 AM,32.0,32.0,100,29.88,3.0,WNW,5.8,-,N/A,,Overcast,290,2013-03-18 11:30:00
6:50 AM,33.8,33.8,100,29.90,4.0,NW,8.1,-,N/A,,Overcast,310,2013-03-18 11:50:00
7:10 AM,35.6,35.6,100,29.91,5.0,NNW,5.8,-,N/A,,Overcast,330,2013-03-18 12:10:00
7:30 AM,35.6,35.6,100,29.91,8.0,North,9.2,-,N/A,,Scattered Clouds,350,2013-03-18 12:30:00
7:50 AM,37.4,35.6,93,29.92,8.0,North,10.4,-,N/A,,Clear,350,2013-03-18 12:50:00
8:10 AM,37.4,33.8,87,29.94,9.0,North,13.8,18.4,N/A,,Clear,350,2013-03-18 13:10:00
8:30 AM,39.2,33.8,81,29.94,10.0,North,15.0,-,N/A,,Clear,360,2013-03-18 13:30:00
8:50 AM,41.0,32.0,70,29.96,10.0,North,15.0,23.0,N/A,,Clear,10,2013-03-18 13:50:00
9:10 AM,41.0,32.0,70,29.97,10.0,NNE,19.6,24.2,N/A,,Clear,20,2013-03-18 14:10:00
9:30 AM,42.8,32.0,66,29.98,10.0,North,17.3,-,N/A,,Clear,10,2013-03-18 14:30:00
9:50 AM,44.6,32.0,61,29.99,10.0,North,17.3,27.6,N/A,,Clear,10,2013-03-18 14:50:00
10:10 AM,44.6,32.0,61,30.00,10.0,NNE,12.7,19.6,N/A,,Clear,20,2013-03-18 15:10:00
10:30 AM,46.4,32.0,57,30.00,10.0,NNE,15.0,19.6,N/A,,Clear,20,2013-03-18 15:30:00
10:50 AM,46.4,30.2,53,30.00,10.0,North,18.4,25.3,N/A,,Clear,10,2013-03-18 15:50:00
11:10 AM,48.2,32.0,54,30.00,10.0,NNE,11.5,19.6,N/A,,Clear,20,2013-03-18 16:10:00
11:30 AM,48.2,30.2,50,30.01,10.0,NNE,10.4,16.1,N/A,,Clear,30,2013-03-18 16:30:00
11:50 AM,50.0,30.2,47,30.01,10.0,North,12.7,18.4,N/A,,Clear,10,2013-03-18 16:50:00
12:10 PM,50.0,28.4,43,30.02,10.0,North,10.4,17.3,N/A,,Clear,10,2013-03-18 17:10:00
12:30 PM,50.0,28.4,43,30.02,10.0,North,4.6,-,N/A,,Clear,350,2013-03-18 17:30:00
12:50 PM,51.8,28.4,41,30.03,10.0,NNE,9.2,-,N/A,,Clear,20,2013-03-18 17:50:00
1:10 PM,53.6,28.4,38,30.02,10.0,NNW,11.5,16.1,N/A,,Clear,340,2013-03-18 18:10:00
1:30 PM,55.4,28.4,36,30.01,10.0,North,9.2,-,N/A,,Clear,360,2013-03-18 18:30:00
1:50 PM,55.4,26.6,33,30.01,10.0,NNW,4.6,-,N/A,,Clear,330,2013-03-18 18:50:00
2:10 PM,55.4,26.6,33,30.01,10.0,NE,3.5,-,N/A,,Clear,40,2013-03-18 19:10:00
2:30 PM,55.4,24.8,31,30.00,10.0,NE,5.8,-,N/A,,Clear,40,2013-03-18 19:30:00
2:50 PM,55.4,23.0,29,30.00,10.0,North,5.8,-,N/A,,Clear,10,2013-03-18 19:50:00
3:10 PM,55.4,23.0,29,29.99,10.0,North,6.9,-,N/A,,Clear,360,2013-03-18 20:10:00
3:30 PM,55.4,23.0,29,29.99,10.0,NNE,9.2,-,N/A,,Clear,20,2013-03-18 20:30:00
3:50 PM,55.4,21.2,26,29.99,10.0,North,6.9,-,N/A,,Clear,360,2013-03-18 20:50:00
4:10 PM,55.4,19.4,25,29.98,10.0,NNE,6.9,-,N/A,,Clear,20,2013-03-18 21:10:00
4:30 PM,57.2,21.2,25,29.98,10.0,North,10.4,-,N/A,,Clear,350,2013-03-18 21:30:00
4:50 PM,55.4,19.4,25,29.98,10.0,NNW,8.1,-,N/A,,Partly Cloudy,340,2013-03-18 21:50:00
5:10 PM,57.2,21.2,25,29.97,10.0,North,9.2,-,N/A,,Scattered Clouds,360,2013-03-18 22:10:00
5:30 PM,55.4,21.2,26,29.97,10.0,NNE,9.2,-,N/A,,Partly Cloudy,20,2013-03-18 22:30:00
5:50 PM,57.2,19.4,23,29.98,10.0,NNE,6.9,-,N/A,,Mostly Cloudy,30,2013-03-18 22:50:00
6:10 PM,57.2,17.6,21,29.98,10.0,North,3.5,-,N/A,,Overcast,10,2013-03-18 23:10:00
6:30 PM,57.2,17.6,21,29.99,10.0,North,5.8,-,N/A,,Mostly Cloudy,10,2013-03-18 23:30:00
6:50 PM,55.4,19.4,25,29.99,10.0,North,4.6,-,N/A,,Partly Cloudy,360,2013-03-18 23:50:00
7:30 PM,53.6,21.2,28,29.98,10.0,SE,3.5,-,N/A,,Clear,140,2013-03-19 00:30:00
7:50 PM,50.0,24.8,37,29.98,10.0,SE,5.8,-,N/A,,Clear,130,2013-03-19 00:50:00
8:10 PM,48.2,23.0,37,29.98,10.0,SE,4.6,-,N/A,,Clear,130,2013-03-19 01:10:00
8:30 PM,46.4,24.8,43,29.99,10.0,SE,5.8,-,N/A,,Clear,130,2013-03-19 01:30:00
8:50 PM,42.8,28.4,57,29.99,10.0,SE,8.1,-,N/A,,Partly Cloudy,130,2013-03-19 01:50:00
9:10 PM,44.6,24.8,46,30.00,10.0,SE,8.1,-,N/A,,Clear,140,2013-03-19 02:10:00
9:30 PM,44.6,24.8,46,30.01,10.0,SE,8.1,-,N/A,,Clear,140,2013-03-19 02:30:00
9:50 PM,41.0,26.6,57,30.01,10.0,SSE,5.8,-,N/A,,Clear,160,2013-03-19 02:50:00
10:10 PM,39.2,26.6,61,30.02,10.0,SSE,8.1,-,N/A,,Clear,150,2013-03-19 03:10:00
10:30 PM,39.2,26.6,61,30.02,10.0,South,8.1,-,N/A,,Clear,170,2013-03-19 03:30:00
10:50 PM,39.2,26.6,61,30.01,10.0,SSE,8.1,-,N/A,,Clear,150,2013-03-19 03:50:00
11:10 PM,39.2,26.6,61,30.01,10.0,SE,8.1,-,N/A,,Clear,130,2013-03-19 04:10:00
11:30 PM,37.4,26.6,65,30.01,10.0,SSE,10.4,-,N/A,,Clear,160,2013-03-19 04:30:00
11:50 PM,37.4,26.6,65,30.00,10.0,SSE,10.4,-,N/A,,Clear,160,2013-03-19 04:50:00